Location: Altenhain
(50.7848°N, 13.0030°E)
Time: 09:25:09
(UTC+00:00)

Daily predictions for brighter satellites

Satellite Brightness Start Highest point End
(mag) Time Altitude Azimuth Time Altitude Azimuth Time Altitude Azimuth
Cosmos 1833 Rocket 3.8 19:47:06 10° NW 19:52:21 42° WSW 19:57:36 10° S
Cosmos 2297 4.2 19:50:01 10° S 19:55:16 41° ESE 20:00:36 10° NE
Cosmos 1943 Rocket 3.5 19:52:02 10° SE 19:55:57 20° E 19:59:53 10° NE
STARLINK-1231 4.0 19:52:43 10° W 19:56:51 69° N 20:01:00 10° ENE
STARLINK-1123 3.6 19:53:24 10° WNW 19:57:34 76° SSW 20:01:42 10° ESE
STARLINK-1246 3.6 19:55:00 10° WSW 19:59:07 68° SSE 20:03:14 10° ENE
Cosmos 2082 Rocket 2.7 19:53:31 10° NW 19:59:08 58° WSW 20:04:42 10° S
IGS 5A 3.5 19:56:20 10° SSE 20:00:29 69° ENE 20:04:38 10° N
Cosmos 1420 Rocket 4.3 19:56:27 10° SSW 20:01:38 72° WNW 20:06:51 10° NNE
Intercosmos 24 4.0 19:58:17 10° NNW 20:01:51 66° W 20:05:35 10° S
STARLINK-1232 4.0 19:57:43 10° W 20:01:52 67° N 20:06:00 10° ENE
Cosmos 1452 Rocket 3.5 19:56:36 10° SSW 20:01:53 84° ESE 20:07:13 10° NNE
Cosmos 332 Rocket 3.8 19:57:17 10° SSW 20:02:09 69° ESE 20:07:02 10° NNE
BREEZE-M DEB 4.1 20:00:24 10° S 20:02:13 17° SE 20:05:04 10° E
STARLINK-1097 3.7 19:58:25 10° WNW 20:02:34 72° SSW 20:06:41 10° ESE
Landsat 7 3.9 19:58:44 10° SSE 20:03:29 76° ENE 20:08:16 10° NNW
STARLINK-1224 3.6 19:59:57 10° WSW 20:04:04 72° SSE 20:08:12 10° ENE
STARLINK-1208 4.1 20:02:41 10° W 20:06:50 66° N 20:10:58 10° ENE
STARLINK-1099 3.7 20:03:23 10° WNW 20:07:31 69° SSW 20:11:39 10° ESE
Cosmos 1461 3.0 20:04:26 10° SSW 20:08:29 55° SE 20:12:47 10° NE
STARLINK-1225 3.6 20:04:55 10° WSW 20:09:04 76° SSE 20:13:12 10° ENE
SAR-Lupe-2 3.7 20:06:43 10° NNE 20:10:16 53° ESE 20:13:48 10° S
Okean 3 4.3 20:06:23 10° SSW 20:10:37 54° WNW 20:14:52 10° N
STARLINK-1271 4.1 20:07:43 10° W 20:11:51 65° N 20:15:59 10° ENE
Cosmos 2369 Rocket 3.6 20:07:56 10° SE 20:11:51 20° E 20:15:48 10° NE
STARLINK-1104 3.7 20:08:22 10° WNW 20:12:29 65° SSW 20:16:35 10° SE
STARLINK-1212 3.5 20:10:50 10° WNW 20:13:54 56° N 20:16:59 10° E
STARLINK-1230 3.6 20:09:53 10° WSW 20:14:01 79° SSE 20:18:11 10° ENE
STARLINK-1105 3.5 20:11:18 10° WNW 20:14:22 56° N 20:17:26 10° E
NOSS 2-2 (C) 4.0 20:11:38 10° S 20:14:46 29° ESE 20:18:13 10° ENE
STARLINK-1247 3.5 20:12:10 10° WNW 20:15:15 56° N 20:18:20 10° E
CZ-4B DEB 4.5 20:12:03 10° SSE 20:15:22 65° ENE 20:18:41 10° N
STARLINK-1227 3.5 20:12:40 10° WNW 20:15:45 56° N 20:18:48 10° E
STARLINK-1226 3.5 20:13:32 10° WNW 20:16:37 56° N 20:19:42 10° E
SL-4 R/B 4.1 20:16:08 10° W 20:16:45 10° WSW 20:17:22 10° WSW
STARLINK-1154 4.1 20:12:42 10° W 20:16:51 64° N 20:20:58 10° ENE
STARLINK-1144 3.8 20:13:21 10° WNW 20:17:28 62° SSW 20:21:27 11° SE
STARLINK-1215 3.5 20:14:26 10° WNW 20:17:31 56° N 20:20:36 10° E
STARLINK-1243 3.6 20:14:52 10° WSW 20:19:01 83° SSE 20:23:10 10° ENE
ATLAS 2AS CENTAUR R/B 4.3 20:13:48 10° SSE 20:19:02 19° ESE 20:24:14 10° ENE
STARLINK-1217 3.5 20:16:15 10° WNW 20:19:20 57° N 20:22:25 10° E
NOSS 3-2 (A) 4.1 20:12:07 10° NW 20:19:26 78° NE 20:27:46 10° SE
SPOT 5 3.3 20:14:26 10° SSE 20:19:36 60° ENE 20:24:54 10° N
STARLINK-1229 3.5 20:17:09 10° WNW 20:20:15 57° N 20:23:20 10° E
STARLINK-1270 3.5 20:18:03 10° WNW 20:21:09 57° N 20:24:14 10° E
OPS 6432 4.5 20:18:25 10° NW 20:21:29 71° NE 20:24:58 11° SE
STARLINK-1197 4.1 20:17:41 10° W 20:21:49 64° N 20:25:56 10° ENE
NOSS 8 (F) 4.1 20:18:52 10° SW 20:22:00 84° SE 20:25:05 10° NE
STARLINK-1103 3.8 20:18:20 10° WNW 20:22:25 58° SSW 20:26:14 12° SE
STARLINK-1189 3.5 20:19:51 10° WNW 20:22:57 58° N 20:26:02 10° E
STARLINK-1188 3.5 20:20:46 10° WNW 20:23:51 58° N 20:26:57 10° E
STARLINK-1236 3.6 20:19:49 10° WSW 20:23:59 86° SSE 20:28:08 10° ENE
ERS-1 Rocket 3.0 20:19:46 10° SSE 20:24:47 74° ENE 20:29:50 10° NNW
STARLINK-1187 3.4 20:21:51 10° WNW 20:24:56 60° N 20:28:00 10° E
STARLINK-1191 3.4 20:23:12 10° WNW 20:26:17 58° N 20:29:22 10° E
STARLINK-1198 4.1 20:22:40 10° W 20:26:48 63° N 20:30:56 10° E
STARLINK-1221 3.4 20:24:10 10° WNW 20:27:14 59° N 20:30:19 10° E
STARLINK-1101 3.9 20:23:19 10° WNW 20:27:23 55° SSW 20:31:00 13° SE
STARLINK-1222 3.4 20:25:01 10° WNW 20:28:06 59° N 20:31:10 10° E
STARLINK-1214 3.4 20:25:54 10° WNW 20:29:00 59° N 20:32:04 10° E
Okean 2 4.4 20:25:56 12° SSE 20:29:17 31° E 20:32:59 10° NNE
Cosmos 1066 Rocket 4.1 20:24:25 10° S 20:29:47 73° E 20:35:08 10° NNE
USA 245 3.6 20:28:27 10° S 20:31:13 37° WSW 20:33:36 10° NNW
USA 238 DEB 3.9 20:24:09 10° NW 20:31:22 85° NE 20:38:25 12° SE
USA 238 3.9 20:24:15 10° NW 20:31:28 84° NE 20:38:32 12° SE
STARLINK-1199 4.1 20:27:41 10° W 20:31:49 63° N 20:35:56 10° E
STARLINK-1102 4.0 20:28:19 10° WNW 20:32:21 51° SSW 20:35:48 14° SE
Okean 1 Rocket 3.2 20:28:54 10° NNW 20:33:23 78° W 20:37:48 10° S
STARLINK-1228 3.4 20:29:58 10° WNW 20:33:28 69° NNE 20:36:58 10° E
Cosmos 1805 3.3 20:29:46 10° N 20:33:41 68° ENE 20:37:07 13° SSE
Cosmos 1470 4.4 20:30:40 10° NNE 20:33:42 21° ENE 20:36:30 11° ESE
STARLINK-1269 3.6 20:29:47 10° WSW 20:33:56 87° NNW 20:38:06 10° ENE
Resurs 01 Rocket 3.6 20:31:20 10° SSW 20:35:00 25° W 20:38:43 10° NW
Cosmos 2278 Rocket 3.7 20:29:42 10° WSW 20:35:05 42° NW 20:40:29 10° NNE
TSX-5 4.3 20:29:39 10° SSW 20:35:07 89° NNW 20:39:19 10° NNE
Nadezhda 4 Rocket 4.0 20:30:08 10° S 20:36:15 77° E 20:42:23 10° NNE
STARLINK-1210 4.1 20:32:40 10° W 20:36:48 63° N 20:40:55 10° E
STARLINK-1235 3.3 20:33:36 10° WNW 20:36:50 68° NNE 20:40:04 10° E
STARLINK-1111 4.0 20:33:18 10° WNW 20:37:18 48° SSW 20:40:34 15° SE
STARLINK-1200 3.7 20:34:45 10° WSW 20:38:54 85° NNW 20:43:04 10° ENE
Cosmos 1455 Rocket 3.8 20:34:52 10° N 20:38:59 39° ENE 20:42:18 14° SE
STARLINK-1219 4.1 20:37:39 10° W 20:41:47 62° N 20:45:54 10° E
STARLINK-1073 4.1 20:38:18 10° WNW 20:42:16 45° SSW 20:45:22 16° SE
SL-8 R/B 4.3 20:38:01 10° W 20:42:33 42° SSW 20:46:16 14° SE
STARLINK-1192 3.7 20:39:45 10° WSW 20:43:54 82° NNW 20:48:04 10° ENE
ATLAS CENTAUR R/B 3.4 20:44:58 10° NW 20:46:04 14° N 20:47:11 10° NE
STARLINK-1211 4.1 20:42:40 10° W 20:46:48 63° N 20:50:55 10° E
STARLINK-1121 4.2 20:43:17 10° WNW 20:47:13 43° SSW 20:50:08 16° SSE
ATLAS 3B CENTAUR R/B 4.5 20:40:45 10° SW 20:47:17 16° SSW 20:50:57 12° SSE
Terra 1.9 20:44:22 14° SSE 20:48:27 76° ENE 20:53:14 10° NNW
SL-4 R/B 3.5 20:44:49 10° S 20:48:30 22° SE 20:52:15 10° E
Cosmos 1110 Rocket 4.0 20:43:37 10° SSW 20:48:48 85° ESE 20:54:01 10° NNE
STARLINK-1244 3.7 20:44:43 10° WSW 20:48:52 79° NNW 20:53:03 10° ENE
SPOT 1/Viking Rocket 4.1 20:45:38 10° S 20:50:41 53° W 20:55:44 10° NNW
Abrixas rocket 3.7 20:48:42 10° WSW 20:50:51 18° SSW 20:51:50 16° S
Cosmos 1842 3.9 20:48:51 16° SSE 20:51:33 38° E 20:55:11 10° NNE
CARTOSAT-1 3.8 20:47:49 12° S 20:51:46 68° WSW 20:56:05 10° NNW
STARLINK-1245 4.1 20:47:38 10° W 20:51:46 63° N 20:55:54 10° E
STARLINK-1106 4.3 20:48:18 10° WNW 20:52:12 40° SW 20:54:56 17° SSE
NOSS 8 (H) 4.2 20:50:05 10° SW 20:53:11 79° NW 20:56:18 10° NE
ERBS 4.2 20:50:08 10° W 20:53:11 33° NNW 20:56:15 10° NE
STARLINK-1138 3.8 20:49:43 10° W 20:53:53 77° NNW 20:58:02 10° ENE
STARLINK-1234 3.0 20:51:22 10° WNW 20:54:40 80° NNE 20:57:43 11° ESE
STARLINK-1233 4.1 20:52:36 10° W 20:56:45 63° N 21:00:52 10° E
STARLINK-1112 4.4 20:53:17 10° WNW 20:57:08 37° SW 20:59:42 18° SSE
STARLINK-1143 3.8 20:54:41 10° W 20:58:50 75° NNW 21:03:00 10° ENE
STARLINK-1209 3.0 20:57:20 10° WNW 21:00:39 86° NNE 21:03:27 14° ESE
STARLINK-1204 4.1 20:57:37 10° WNW 21:01:45 64° N 21:05:52 10° E
STARLINK-1128 4.5 20:58:17 10° WNW 21:02:04 35° SW 21:04:28 19° SSE
STARLINK-1241 3.9 20:59:43 10° W 21:03:52 73° NNW 21:08:01 10° ENE
Cosmos 1331 Rocket 4.1 21:00:27 10° SSW 21:05:37 79° WNW 21:10:51 10° NNE
Aureole 2 Rocket 3.9 21:03:37 10° SW 21:06:25 32° WNW 21:09:07 10° N
STARLINK-1238 4.0 21:02:37 10° WNW 21:06:45 64° N 21:10:53 10° E
Cosmos 1733 3.2 21:02:58 10° NNW 21:06:48 77° W 21:09:32 18° S
STARLINK-1239 3.9 21:04:41 10° W 21:08:50 71° N 21:13:00 10° ENE
STARLINK-1201 4.0 21:07:36 10° WNW 21:11:45 65° N 21:15:52 10° E
COSMOS 2455 4.2 21:09:45 16° SE 21:12:14 20° ESE 21:16:31 10° ENE
Cosmos 1378 3.7 21:09:53 10° SSW 21:13:32 56° WNW 21:17:12 10° N
STARLINK-1240 3.9 21:09:40 10° W 21:13:49 69° N 21:17:58 10° ENE
Cosmos 1486 Rocket 4.0 21:09:04 10° NNW 21:14:25 85° ENE 21:18:13 19° SSE
Cosmos 1833 4.5 21:09:14 10° NNW 21:14:51 63° NE 21:19:13 17° SE
USA 215 3.7 21:08:40 10° E 21:15:09 65° NNE 21:21:37 10° WNW
Cosmos 1302 Rocket 4.0 21:10:26 10° SSW 21:15:42 72° ESE 21:21:00 10° NNE
Cosmos 1544 Rocket 3.6 21:11:31 10° N 21:15:50 65° ENE 21:18:39 21° SSE
Cosmos 1271 Rocket 3.7 21:14:22 21° SE 21:16:15 33° E 21:19:49 10° NNE
STARLINK-1206 4.0 21:12:36 10° WNW 21:16:45 66° N 21:20:53 10° E
MTI 3.6 21:13:55 10° NNE 21:17:04 75° ESE 21:18:58 22° S
Cosmos 1242 Rocket 3.0 21:15:26 22° SSE 21:17:25 46° E 21:20:58 10° NNE
STARLINK-1203 4.0 21:14:31 10° W 21:18:42 68° N 21:22:54 10° ENE
STARLINK-1216 4.0 21:14:39 10° W 21:18:47 68° N 21:22:56 10° ENE
STARLINK-60 3.8 21:20:10 27° SSE 21:20:21 28° SE 21:23:09 10° E
STARLINK-1205 4.0 21:17:35 10° WNW 21:21:44 67° N 21:25:52 10° E
Cosmos 1092 Rocket 4.1 21:15:40 10° SSW 21:21:48 80° W 21:28:00 10° N
NOSS 2-2 (D) 3.4 21:19:26 10° SW 21:23:02 73° NW 21:27:16 10° NE
STARLINK-1237 4.0 21:19:39 10° W 21:23:47 67° N 21:27:56 10° ENE
CENTAUR R/B 3.2 21:15:59 10° NW 21:23:56 85° SW 21:31:08 17° SE
Cosmos 1707 3.6 21:24:35 23° SE 21:26:21 34° E 21:29:55 10° NNE
STARLINK-1218 3.9 21:22:35 10° WNW 21:26:44 68° N 21:30:52 10° E
ATLAS 3B R/B 3.1 21:20:31 10° NW 21:27:13 62° NE 21:33:57 11° ESE
SL-27 R/B 2.9 21:24:02 10° NNW 21:27:34 54° WSW 21:29:28 24° S
STARLINK-1202 4.0 21:24:39 10° W 21:28:47 66° N 21:32:55 10° ENE
NOSS 3-2 (C) 4.1 21:21:44 10° NW 21:29:08 75° SW 21:35:37 18° SSE
Cosmos 1726 3.3 21:27:34 10° N 21:30:57 32° ENE 21:32:50 20° ESE
STARLINK-1254 3.9 21:27:34 10° WNW 21:31:43 70° N 21:35:52 10° E
ALOS 2 4.0 21:30:24 15° ESE 21:33:19 29° ENE 21:37:06 10° N
Cosmos 1867 3.6 21:28:37 10° NW 21:34:08 81° NE 21:38:07 19° SE
COSMOS 2487 3.5 21:31:57 10° N 21:35:12 36° ENE 21:37:03 20° ESE
STARLINK-1231 3.8 21:32:32 10° WNW 21:36:42 71° NNE 21:40:50 10° E
STARLINK-1246 4.1 21:34:39 10° W 21:38:47 64° N 21:42:55 10° ENE
Cosmos 1943 Rocket 2.3 21:33:28 10° SSW 21:39:02 79° WNW 21:44:42 10° NNE
Cosmos 1992 Rocket 4.3 21:36:08 21° S 21:39:17 48° ESE 21:44:18 10° NNE
NOSS 2-2 (E) 4.4 21:36:54 10° WSW 21:40:29 47° NW 21:44:47 10° NE
NOSS 3-4 (A) 3.8 21:36:32 18° S 21:40:35 42° ESE 21:46:29 10° NE
NOSS 3-4 (C) 3.8 21:36:40 18° S 21:40:42 42° ESE 21:46:36 10° NE
STARLINK-1232 3.8 21:37:32 10° WNW 21:41:42 73° NNE 21:45:51 10° E
SeaSat 1 3.1 21:37:32 10° NE 21:42:09 38° ESE 21:44:34 23° SSE
EO 1 Del DPAF 3.6 21:39:10 10° NNE 21:42:51 48° E 21:44:29 28° SSE
STARLINK-1224 4.1 21:39:38 10° W 21:43:46 63° N 21:47:54 10° ENE
STARLINK-1208 3.8 21:42:30 10° WNW 21:46:40 75° NNE 21:50:49 10° E
Cosmos 1975 Rocket 3.9 21:44:36 12° SSW 21:48:36 48° WNW 21:52:53 10° N
STARLINK-1225 4.1 21:44:39 10° W 21:48:47 63° N 21:52:54 10° E
STARLINK-1212 2.8 21:46:42 10° WNW 21:49:48 63° SSW 21:50:47 37° SE
STARLINK-1105 2.8 21:47:11 10° WNW 21:50:15 62° SSW 21:51:13 38° SE
Meteor 2-10 4.0 21:45:40 10° N 21:50:44 73° ENE 21:53:43 25° SSE
STARLINK-1247 2.8 21:48:03 10° WNW 21:51:09 61° SSW 21:52:06 38° SE
STARLINK-1227 2.8 21:48:32 10° WNW 21:51:37 61° SSW 21:52:33 39° SE
STARLINK-1271 3.7 21:47:31 10° WNW 21:51:40 77° NNE 21:55:50 10° ESE
Cosmos 292 Rocket 3.8 21:48:20 16° SSW 21:52:15 90° WNW 21:57:10 10° NNE
BREEZE-M DEB (TANK) 3.2 21:40:19 10° WSW 21:52:24 71° S 21:55:51 10° E
STARLINK-1226 2.9 21:49:24 10° WNW 21:52:29 60° SSW 21:53:24 39° SE
BREEZE-M DEB (TANK) 2.8 21:49:16 10° W 21:53:00 68° S 21:57:01 10° ESE
STARLINK-1215 2.9 21:50:18 10° WNW 21:53:23 59° SSW 21:54:16 39° SE
STARLINK-1230 4.1 21:49:38 10° W 21:53:45 63° N 21:57:53 10° E
S3M 4.0 21:47:51 10° N 21:54:03 83° E 21:58:10 23° SSE
Cosmos 2227 Rocket 4.3 21:49:42 10° NNW 21:54:06 22° NE 21:58:30 10° E
RESURS DK-1 4.3 21:53:57 15° ESE 21:54:24 15° ESE 21:56:50 10° ENE
STARLINK-1217 2.9 21:52:07 10° WNW 21:55:12 58° SSW 21:56:00 41° SSE
Cosmos 2369 Rocket 2.3 21:49:32 10° SSW 21:55:13 81° WNW 22:00:55 10° NNE
STARLINK-1229 2.9 21:53:02 10° WNW 21:56:07 57° SSW 21:56:54 41° SSE
STARLINK-1154 3.7 21:52:29 10° WNW 21:56:40 80° NNE 22:00:49 10° ESE
STARLINK-1270 2.9 21:53:55 10° WNW 21:57:00 56° SSW 21:57:45 42° SSE
STARLINK-1243 4.1 21:54:38 10° W 21:58:46 63° N 22:02:53 10° E
STARLINK-1189 2.9 21:55:43 10° WNW 21:58:47 55° SSW 21:59:29 43° SSE
STARLINK-1188 3.0 21:56:38 10° WNW 21:59:43 54° SSW 22:00:22 43° SSE
Cosmos 1340 Rocket 3.0 21:56:32 10° N 22:00:36 66° ENE 22:02:31 29° SSE
STARLINK-1187 3.1 21:57:45 10° WNW 22:00:45 48° SSW 22:01:14 43° S
ATLAS CENTAUR R/B 2.0 21:59:35 29° SSE 22:01:02 38° ESE 22:04:53 10° NE
STARLINK-1197 3.6 21:57:27 10° WNW 22:01:37 82° NNE 22:05:46 10° ESE
STARLINK-1191 3.0 21:59:05 10° WNW 22:02:07 52° SSW 22:02:40 44° SSE
Aureole 3 3.5 21:59:19 10° N 22:02:28 41° ENE 22:03:24 31° ESE
STARLINK-1221 3.0 22:00:03 10° WNW 22:03:04 51° SSW 22:03:34 45° S
Thor Agena Rocket 3.6 21:58:19 10° NNE 22:03:39 83° ESE 22:07:11 22° SSW
STARLINK-1236 4.1 21:59:37 10° W 22:03:44 63° N 22:07:52 10° E
STARLINK-1222 3.0 22:00:53 10° WNW 22:03:55 50° SSW 22:04:23 45° S
STARLINK-1214 3.0 22:01:47 10° WNW 22:04:49 50° SSW 22:05:15 45° S
Cosmos 1025 Rocket 2.9 22:02:57 26° S 22:05:21 87° W 22:09:43 10° N
NOSS 7 (A) 4.4 22:04:00 30° SSW 22:05:22 76° SE 22:08:17 10° NE
Cosmos 1908 4.2 22:02:04 10° N 22:05:39 37° ENE 22:07:21 24° ESE
EXPRESS MD2 4.2 22:02:18 10° W 22:06:32 82° S 22:15:37 10° E
STARLINK-1198 3.6 22:02:26 10° WNW 22:06:36 85° NNE 22:10:33 11° ESE
Cosmos 1553 Rocket 4.3 22:01:17 10° NNW 22:07:30 63° W 22:11:43 21° SSW
BREEZE M DEB (TANK) 1.5 22:05:50 10° W 22:08:33 64° S 22:08:33 64° S
ATLAS 2AS CENTAUR R/B 3.0 22:00:54 10° SSW 22:08:48 69° SE 22:16:41 10° NE
Cosmos 1656 Rocket 3.6 22:04:50 20° SSW 22:08:49 72° ESE 22:14:23 10° NNE
Cosmos 1953 2.2 22:04:54 10° N 22:08:55 87° W 22:10:41 32° S
BREEZE-M DEB (TANK) 4.2 21:58:14 10° WNW 22:09:49 46° SW 22:11:56 27° SSE
Cosmos 1470 3.7 22:06:18 10° NNW 22:09:54 38° W 22:11:51 22° SSW
STARLINK-1228 3.7 22:07:17 10° WNW 22:10:36 40° SSW 22:11:08 37° S
STARLINK-1199 3.6 22:07:26 10° WNW 22:11:37 88° NNE 22:15:20 13° ESE
STARLINK-1235 3.5 22:10:01 10° WNW 22:13:04 38° SSW 22:13:12 38° SSW
APEX 4.3 22:07:02 10° SW 22:13:26 81° WNW 22:18:38 10° NNE
STARLINK-1269 4.1 22:09:36 10° W 22:13:44 63° N 22:17:52 10° E
Cosmos 2292 Rocket 3.3 22:13:24 35° SSE 22:14:32 51° E 22:17:38 10° NNE
Cosmos 968 Rocket 4.2 22:09:57 10° NW 22:14:46 41° WSW 22:17:31 22° SSW
STARLINK-1210 3.5 22:12:24 10° WNW 22:16:34 89° SSW 22:20:06 14° ESE
STARLINK-1200 4.1 22:14:35 10° WNW 22:18:43 63° N 22:22:50 10° E
Cosmos 1655 Rocket 4.0 22:15:01 22° S 22:19:19 87° W 22:25:38 10° N
Cosmos 1777 Rocket 4.3 22:14:45 10° NNW 22:19:58 63° ENE 22:23:18 22° SE
SL-4 R/B 0.7 22:20:18 69° N 22:20:18 69° N 22:22:17 10° NNW
STARLINK-1219 3.5 22:17:22 10° WNW 22:21:33 86° SSW 22:24:53 15° ESE
ATLAS 5 CENTAUR R/B 1.2 22:21:46 28° SSW 22:23:14 57° SE 22:25:23 10° ENE
STARLINK-1192 4.0 22:19:35 10° WNW 22:23:43 64° N 22:27:51 10° E
STARLINK-52 3.6 22:26:27 37° ESE 22:26:27 37° ESE 22:29:01 10° ENE
STARLINK-1211 3.5 22:22:22 10° WNW 22:26:32 82° SSW 22:29:40 17° ESE
Cosmos 2228 3.3 22:22:27 10° N 22:26:40 59° ENE 22:28:36 29° SE
Terra 4.0 22:23:48 10° SW 22:26:46 16° W 22:29:44 10° NW
Meteor 2-15 4.4 22:21:13 10° N 22:27:25 89° W 22:31:06 26° S
Cosmos 1726 Rocket 4.0 22:23:11 10° N 22:27:25 50° ENE 22:29:30 27° SE
SL-4 R/B 2.3 22:22:54 10° WSW 22:27:41 65° SSE 22:32:29 10° ENE
STARLINK-1244 4.0 22:24:34 10° WNW 22:28:42 65° N 22:32:50 10° E
ERBS 4.4 22:27:10 10° NW 22:30:07 28° N 22:33:04 10° ENE
STARLINK-1234 4.2 22:27:53 10° W 22:30:16 27° SW 22:30:16 27° SW
STARLINK-1245 3.5 22:27:20 10° WNW 22:31:30 79° SSW 22:34:26 19° ESE
Cosmos 1300 4.3 22:28:21 10° NNE 22:31:37 26° ENE 22:33:33 17° ESE
In-Cosmos 22 4.0 22:30:05 26° S 22:33:07 87° ESE 22:38:27 10° NNE
Cosmos 921 Rocket 4.4 22:31:52 21° SE 22:33:08 24° E 22:36:39 10° NE
STARLINK-1138 4.0 22:29:33 10° WNW 22:33:42 65° N 22:37:50 10° E
STARLINK-1233 3.5 22:32:18 10° WNW 22:36:28 75° SSW 22:39:11 20° ESE
Cosmos 2266 Rocket 3.9 22:33:43 24° S 22:37:35 86° W 22:43:40 10° N
STARLINK-1143 4.0 22:34:31 10° WNW 22:38:40 67° N 22:42:48 10° E
STARLINK-1204 3.5 22:37:17 10° WNW 22:41:26 71° SSW 22:43:59 22° SE
SJ 16-02 3.3 22:39:25 10° N 22:43:03 24° NE 22:46:40 10° ESE
STARLINK-1241 3.9 22:39:33 10° WNW 22:43:42 68° N 22:47:50 10° E
STARLINK-1238 3.5 22:42:18 10° WNW 22:46:25 68° SSW 22:48:47 24° SE
Meteor 2-15 Rocket 4.4 22:41:09 10° NNW 22:47:20 81° W 22:50:55 27° S
STARLINK-1239 3.9 22:44:31 10° WNW 22:48:40 69° N 22:52:49 10° E
Helios 1B rocket 4.1 22:45:23 10° NE 22:48:42 23° E 22:50:09 19° ESE
Cosmos 1674 2.6 22:48:20 39° S 22:49:39 87° E 22:53:28 10° N
STARLINK-1201 3.5 22:47:16 10° WNW 22:51:23 64° SSW 22:53:33 26° SE
STARLINK-1240 3.9 22:49:30 10° WNW 22:53:39 71° NNE 22:57:48 10° E
STARLINK-60 3.0 22:53:05 10° WSW 22:56:16 79° NNW 22:59:28 10° ENE
STARLINK-1206 3.6 22:52:16 10° WNW 22:56:22 61° SSW 22:58:21 28° SE
COSMOS 2455 2.8 22:52:50 18° SW 22:57:25 88° NW 23:03:31 10° NE
Cosmos 2219 3.6 22:52:11 10° NNW 22:57:49 61° NE 23:02:18 16° SE
STARLINK-1375 4.4 22:58:33 29° SE 22:58:33 29° SE 23:01:28 10° E
USA 215 3.3 22:52:57 16° SE 22:58:13 64° SW 23:04:45 10° WNW
STARLINK-1216 3.8 22:54:29 10° WNW 22:58:38 72° NNE 23:02:47 10° E
STARLINK-1203 3.8 22:54:33 10° WNW 22:58:46 73° NNE 23:02:59 10° E
STARLINK-1205 3.6 22:57:15 10° WNW 23:01:19 57° SSW 23:03:07 30° SE
STARLINK-1352 4.4 23:01:56 28° SE 23:01:56 28° SE 23:04:35 10° E
STARLINK-1350 4.3 23:01:49 31° SE 23:01:49 31° SE 23:04:53 10° E
Cosmos 2297 Rocket 2.8 22:56:30 10° NNW 23:02:05 55° NE 23:07:00 13° SE
Helios 1A 3.0 23:01:35 35° S 23:03:17 71° WSW 23:07:29 10° NNW
STARLINK-1237 3.8 22:59:28 10° WNW 23:03:37 74° NNE 23:07:47 10° E
Lacrosse 4 Rocket 3.5 23:02:00 10° NNW 23:05:45 27° NE 23:09:24 10° E
Cosmos 1726 3.9 23:03:04 10° NW 23:06:01 22° W 23:07:20 19° WSW
STARLINK-1218 3.7 23:02:15 10° WNW 23:06:18 54° SSW 23:07:55 32° SSE
STARLINK-1368 4.1 23:08:27 34° SE 23:08:27 34° SE 23:11:51 10° E
Cosmos 1174 4.0 23:06:36 24° WSW 23:08:25 57° NW 23:12:20 10° NNE
STARLINK-1202 3.7 23:04:27 10° WNW 23:08:37 76° NNE 23:12:46 10° E
Timation 2 Rocket 4.0 23:03:10 10° NW 23:09:26 65° WSW 23:12:55 26° S
ALOS 2 3.5 23:07:47 26° SW 23:09:33 37° W 23:13:39 10° NNW
Cosmos 2058 Rocket 3.0 23:05:28 10° N 23:09:56 85° ENE 23:11:58 32° SSE
COSMOS 2487 4.2 23:07:29 10° NW 23:10:01 19° W 23:10:32 19° WSW
STARLINK-1254 3.8 23:07:14 10° WNW 23:11:16 51° SSW 23:12:41 34° SSE
STARLINK-1369 4.0 23:11:47 36° SSE 23:11:51 36° SE 23:15:21 10° ENE
CENTAUR R/B 4.3 23:07:25 10° WNW 23:14:03 28° WSW 23:18:17 19° SSW
STARLINK-1372 3.9 23:15:07 37° SSE 23:15:19 38° SSE 23:18:52 10° ENE
STARLINK-1231 3.8 23:12:13 10° WNW 23:16:13 47° SSW 23:17:27 35° SSE
Starlink 7 placeholder 4.3 23:17:57 18° ENE 23:17:57 18° ENE 23:18:39 10° ENE
Meteor 2-5 Rocket 3.7 23:14:12 28° SSW 23:17:18 89° W 23:22:59 10° NNE
ATLAS 3B R/B 3.3 23:11:28 10° NW 23:17:45 41° WSW 23:21:09 25° S
STARLINK-1246 3.6 23:14:26 10° WNW 23:18:36 81° NNE 23:22:45 10° ESE
STARLINK-1378 3.8 23:18:28 39° SSE 23:18:48 40° SSE 23:22:22 10° ENE
SeaSat 1 3.5 23:15:03 10° NNE 23:19:42 43° NW 23:24:21 10° WSW
Cosmos 1606 Rocket 4.3 23:15:48 10° NNW 23:19:52 41° W 23:21:36 28° SW
SL-14 R/B 3.2 23:19:11 38° S 23:20:32 70° E 23:24:22 10° NNE
STARLINK-1232 3.9 23:17:13 10° WNW 23:21:12 45° SSW 23:22:15 36° S
FALCON 9 DEB 3.0 23:20:07 37° SW 23:21:18 69° SSE 23:24:45 10° ENE
STARLINK-1379 3.8 23:21:51 40° SSE 23:22:18 42° SSE 23:25:54 10° ENE
STARLINK-1224 3.6 23:19:24 10° WNW 23:23:35 84° NNE 23:27:44 10° ESE
Cosmos 1943 Rocket 4.5 23:19:32 10° W 23:23:43 21° NW 23:27:58 10° NNE
STARLINK-1329 3.8 23:23:14 40° S 23:23:45 42° SSE 23:27:22 10° ENE
Meteor 2-21 4.4 23:20:59 26° S 23:24:38 90° W 23:30:54 10° N
STARLINK-1208 4.0 23:22:12 10° WNW 23:26:07 42° SSW 23:27:00 36° S
STARLINK-29 2.9 23:24:02 20° WSW 23:26:09 83° NNW 23:29:22 10° ENE
SL-16 R/B 4.0 23:21:18 10° ESE 23:26:39 32° ENE 23:32:02 10° N
STARLINK-1362 3.7 23:26:40 40° S 23:27:18 45° SSE 23:30:58 10° ENE
ATLAS CENTAUR R/B 0.9 23:26:08 10° WNW 23:28:20 88° SSW 23:32:31 10° SE
STARLINK-1225 3.6 23:24:24 10° WNW 23:28:35 87° NNE 23:32:44 10° ESE
STARLINK-1373 3.6 23:30:05 40° S 23:30:52 47° SSE 23:34:34 10° ENE
STARLINK-1271 4.1 23:27:14 10° WNW 23:31:07 39° SW 23:31:49 36° S
NOSS 3-4 (A) 4.1 23:25:25 10° WSW 23:31:21 55° NW 23:37:47 10° NE
NOSS 3-4 (C) 4.1 23:25:30 10° WSW 23:31:26 55° NW 23:37:54 10° NE
RESURS DK-1 2.5 23:29:48 28° SW 23:31:55 71° WNW 23:36:04 10° NNE
STARLINK-1365 3.6 23:31:12 39° SSW 23:32:07 49° SSE 23:35:49 10° ENE
STARLINK-1230 3.5 23:29:22 10° WNW 23:33:32 90° WNW 23:37:42 10° ESE
STARLINK-1390 3.6 23:33:34 39° SSW 23:34:29 49° SSE 23:38:11 10° ENE
Cosmos 1697 Rocket 4.2 23:32:47 16° SE 23:35:44 24° ESE 23:40:11 10° NE
Cosmos 2084 3.5 23:33:36 27° SW 23:36:02 86° SE 23:40:32 10° NE
STARLINK-1154 4.1 23:32:14 10° WNW 23:36:04 37° SW 23:36:35 35° SSW
Cosmos 1812 Rocket 4.2 23:31:48 10° N 23:36:10 50° ENE 23:38:55 21° SE
BREEZE-M R/B 3.6 23:31:44 13° SW 23:37:19 44° SSE 23:40:48 10° E
Cosmos 1626 2.1 23:36:00 37° SSW 23:37:20 72° WNW 23:41:04 10° N
STARLINK-1243 3.5 23:34:22 10° WNW 23:38:32 87° SSW 23:42:41 10° ESE
Cosmos 990 Rocket 4.3 23:33:39 10° NNW 23:38:54 64° ENE 23:43:10 15° SE
Cosmos 2227 Rocket 2.2 23:33:19 10° NNW 23:39:03 83° ENE 23:43:29 17° SSE
Okean 1-7 Rocket 3.8 23:37:39 30° SSW 23:39:48 68° WNW 23:44:21 10° N
ATLAS CENTAUR R/B 2.7 23:35:58 10° WSW 23:39:58 37° NW 23:43:46 10° NNE
Cosmos 2369 Rocket 4.4 23:35:49 10° W 23:40:08 22° NW 23:44:28 10° NNE
STARLINK-1197 4.2 23:37:12 10° WNW 23:40:59 34° SW 23:41:21 34° SSW
CZ-4 R/B 3.8 23:36:38 10° NNE 23:41:27 81° ESE 23:43:50 30° S
STARLINK-1236 3.5 23:39:20 10° WNW 23:43:30 83° SSW 23:47:39 10° ESE
STARLINK-1198 4.3 23:42:13 10° W 23:45:56 32° SW 23:46:07 32° SSW
Cosmos 1602 Rocket 3.9 23:47:23 27° SSE 23:49:28 54° E 23:53:43 10° NNE
SL-08 ROCKET BODY 4.4 23:46:46 25° S 23:50:20 72° E 23:56:10 10° NNE
STARLINK-1199 4.4 23:47:15 10° W 23:50:54 30° SW 23:50:56 30° SW
STARLINK-1269 3.5 23:49:18 10° WNW 23:53:27 76° SSW 23:57:36 10° ESE
